[[{"header":{"parameterUnit":"m.s-1","parameterCategory":1,"la1":30.2991,"la2":30.254,"lo1":-89.0895,"lo2":-89.0444,"dy":0.0017,"dx":0.0017,"nx":28,"ny":28,"refTime":"2024-02-24T03:00:00:Z","depth":0,"parameterNumber":2,"parameterNumberName":"U-component_of_WINDS"},"data":[0,0,0,0,0,0,0,0,0,0,0,0,0,0,0,0,0,0,0,0,0,0,0,0,0,0,0,0,0,0,0,0,0,0,0,0,0,0,0,0,0,0,0,0,0,0,0,0,0,0,0,0,0,0,0,0,0,0,3.2927,3.2928,0,3.2984,3.2984,3.2985,3.2947,3.2945,3.2944,3.2942,3.3002,3.3005,3.3008,0,0,0,0,0,0,0,0,0,0,0,0,0,3.2789,3.2792,3.2927,3.2928,3.2928,3.2984,3.2984,3.2985,3.2947,3.2945,3.2943,3.2941,3.3001,3.3005,3.3009,0,0,0,0,0,0,0,0,0,0,0,0,0,3.2848,3.2793,3.2927,3.2916,3.2916,3.2983,3.2984,3.2985,3.2948,3.2945,3.2943,3.294,3.3,3.3004,3.3009,3.3091,0,0,3.3024,3.3026,0,0,0,0,0,0,0,0,3.2844,3.2853,3.2917,3.2917,3.2917,3.2956,3.2958,3.3021,3.2949,3.2936,3.2942,3.2939,3.2989,3.2994,3.3011,3.3094,3.3096,3.3024,3.3027,3.3029,3.3031,0,0,0,0,0,0,0,3.284,3.285,3.2949,3.2918,3.2918,3.291,3.2915,3.2969,3.2976,3.2937,3.2934,3.2941,3.2988,3.3006,3.3012,3.3097,3.3024,3.3028,3.3031,3.3033,3.3252,3.3255,0,0,0,0,0,0,3.2837,3.2847,3.2948,3.2951,3.2873,3.2914,3.292,3.2946,3.2976,3.2978,3.2943,3.2939,3.2999,3.3006,3.3014,3.3113,3.3029,3.3034,3.3037,3.325,3.3253,3.3256,0,0,0,0,0,0,3.2834,3.2846,3.2945,3.2898,3.291,3.2919,3.2948,3.2948,3.2966,3.2981,3.2982,3.296,3.2998,3.3007,3.3072,3.3115,3.3036,3.304,3.3246,3.3251,3.3255,3.3311,0,0,0,0,0,0,3.283,3.2845,3.2876,3.2899,3.2913,3.3002,3.2951,3.2951,3.2974,3.2969,3.2997,3.2999,3.2996,3.3065,3.3077,3.312,3.3044,3.3242,3.3248,3.3253,3.3306,3.3317,3.3327,0,0,0,0,0,3.2825,3.2889,3.2877,3.289,3.2951,3.3005,3.3013,3.3008,3.2978,3.3009,3.3019,3.2998,3.3108,3.3072,3.3085,3.313,3.324,3.3247,3.3253,3.3301,3.3315,3.3327,0,0,0,0,0,0,3.2871,3.2892,3.2879,3.2953,3.2977,3.2998,3.3037,3.3022,3.3056,3.305,3.3043,3.305,3.3119,3.3131,3.3091,3.3212,3.3169,3.3179,3.3201,3.3215,3.3225,3.3221,3.3048,0,0,0,0,0,3.2889,3.293,3.2947,3.301,3.3023,3.3028,3.3051,3.3046,3.3071,3.3081,3.3095,3.3122,3.3162,3.3189,3.3227,3.3307,3.3314,3.3344,3.3355,3.3364,3.3372,3.3418,3.3432,3.3278,3.3278,3.3278,0,0,3.2928,3.2945,3.2971,3.302,3.3038,3.3082,3.3037,3.3085,3.3118,3.3089,3.3151,3.3163,3.3192,3.3266,3.3299,3.3278,3.3416,3.3372,3.3379,3.3383,3.3426,3.344,3.3453,3.3282,3.3282,3.3281,0,0,3.3021,3.3038,3.3093,3.3112,3.314,3.3144,3.3157,3.3181,3.3187,3.325,3.323,3.3269,3.3338,3.336,3.3381,3.3484,3.3467,3.3497,3.3552,3.3596,3.3608,3.3619,3.3658,3.3671,3.3505,3.3505,3.3505,0,3.3066,3.313,3.3123,3.3173,3.3196,3.3171,3.3228,3.3247,3.3287,3.3304,3.328,3.3368,3.3385,3.3464,3.349,3.3506,3.3523,3.3494,3.3607,3.3618,3.3628,3.3664,3.3679,3.3509,3.3508,3.3508,3.3507,0,3.3185,3.323,3.3271,3.331,3.3337,3.339,3.3392,3.3421,3.3413,3.342,3.3485,3.3505,3.3548,3.3566,3.3559,3.3645,3.3632,3.3607,3.3565,3.3646,3.368,3.3694,3.3514,3.3512,3.3511,3.351,0,0,3.3308,3.3343,3.3358,3.3376,3.3406,3.3442,3.3494,3.3535,3.3561,3.3589,3.3635,3.3695,3.3673,3.3696,3.3691,3.373,3.3813,3.3701,3.3702,3.3723,3.3911,3.393,3.3946,3.3801,3.3804,3.3806,3.3909,0,3.3404,3.3495,3.3491,3.3577,3.3619,3.3597,3.3643,3.3668,3.3675,3.3713,3.3722,3.3765,3.3732,3.3746,3.3784,3.3795,3.3851,3.3787,3.3845,3.3847,3.3839,3.3964,3.3984,3.408,3.3923,3.3925,3.3926,0,3.3528,3.3561,3.3651,3.3676,3.3694,3.3735,3.3773,3.381,3.3837,3.384,3.3867,3.3856,3.3911,3.3866,3.3943,3.39,3.3923,3.3933,3.3936,3.3942,3.3892,3.3975,3.4111,3.4126,3.3947,3.3946,3.3944,0,3.3611,3.3677,3.374,3.3756,3.3786,3.3817,3.3831,3.3856,3.3881,3.3915,3.3932,3.3972,3.3994,3.4026,3.4027,3.3994,3.4106,3.4061,3.4111,3.4111,3.4136,3.4135,3.4279,3.4149,3.4149,3.4149,3.4148,0,3.3719,3.3775,3.3778,3.3817,3.388,3.3875,3.3938,3.3949,3.3972,3.4014,3.3997,3.4037,3.4035,3.4076,3.4077,3.4142,3.4152,3.4157,3.4157,3.4159,3.4159,3.4175,3.4169,3.4153,3.4152,3.4151,3.415,0,3.3822,3.3826,3.3893,3.3917,3.3924,3.397,3.3991,3.4028,3.4034,3.4088,3.41,3.4111,3.4158,3.4162,3.4217,3.4218,3.4296,3.4288,3.4287,3.4286,3.4337,3.4333,3.4498,3.452,3.4374,3.4376,3.4377,0,3.3891,3.3934,3.3963,3.3989,3.4005,3.4048,3.4074,3.4071,3.41,3.4135,3.4169,3.4215,3.4251,3.4329,3.4342,3.4384,3.4378,3.4433,3.4384,3.4386,3.4381,3.4379,3.4384,3.4443,3.4444,3.4446,3.4447,0,3.4014,3.4014,3.4052,3.4092,3.4124,3.4154,3.4183,3.4206,3.4207,3.424,3.4288,3.4317,3.4373,3.442,3.4462,3.4477,3.4464,3.4462,3.4476,3.4479,3.4478,3.4481,3.4314,3.4458,3.4457,3.4456,3.4456,3.4455,3.4104,3.4141,3.4168,3.4211,3.4233,3.426,3.4297,3.4309,3.4348,3.4394,3.439,3.4444,3.4472,3.4527,3.4547,3.459,3.4571,3.4591,3.4597,3.4602,3.4608,3.447,3.4597,3.4597,3.4596,3.4596,3.4596,0,3.4227,3.4243,3.4283,3.4324,3.4359,3.4342,3.4373,3.4404,3.4451,3.4478,3.4515,3.4571,3.4616,3.4634,3.4678,3.4709,3.4704,3.4721,3.472,3.4724,3.4621,3.4605,3.4725,3.4725,3.4725,3.4725,3.4725,3.4725,3.4296,3.4359,3.4363,3.4437,3.4453,3.4505,3.4525,3.4551,3.4573,3.4637,3.4674,3.4685,3.4709,3.4755,3.4796,3.48,3.4818,3.4839,3.484,3.4744,3.4731,3.4719,3.4704,3.4842,3.4843,3.494,3.4941,3.4941]},{"header":{"parameterUnit":"m.s-1","parameterCategory":1,"la1":30.2991,"la2":30.254,"lo1":-89.0895,"lo2":-89.0444,"dy":0.0017,"dx":0.0017,"nx":28,"ny":28,"refTime":"2024-02-24T03:00:00:Z","depth":0,"parameterNumber":3,"parameterNumberName":"V-component_of_WINDS"},"data":[0,0,0,0,0,0,0,0,0,0,0,0,0,0,0,0,0,0,0,0,0,0,0,0,0,0,0,0,0,0,0,0,0,0,0,0,0,0,0,0,0,0,0,0,0,0,0,0,0,0,0,0,0,0,0,0,0,0,-1.5847,-1.5847,0,-1.5806,-1.5806,-1.5805,-1.5842,-1.5844,-1.5845,-1.5847,-1.5796,-1.5793,-1.579,0,0,0,0,0,0,0,0,0,0,0,0,0,-1.595,-1.5948,-1.5847,-1.5847,-1.5846,-1.5806,-1.5806,-1.5805,-1.5842,-1.5844,-1.5846,-1.5847,-1.5797,-1.5794,-1.579,0,0,0,0,0,0,0,0,0,0,0,0,0,-1.5906,-1.5947,-1.5848,-1.586,-1.5861,-1.5806,-1.5806,-1.5805,-1.5842,-1.5844,-1.5846,-1.5848,-1.5798,-1.5794,-1.579,-1.5718,0,0,-1.5777,-1.5775,0,0,0,0,0,0,0,0,-1.5909,-1.5902,-1.5859,-1.5859,-1.586,-1.5832,-1.5823,-1.5775,-1.5841,-1.5849,-1.5847,-1.5849,-1.5805,-1.5801,-1.5788,-1.5715,-1.5713,-1.5777,-1.5774,-1.5772,-1.5771,0,0,0,0,0,0,0,-1.5912,-1.5904,-1.5831,-1.5858,-1.5859,-1.5865,-1.5861,-1.5814,-1.5814,-1.5848,-1.5851,-1.5846,-1.5806,-1.5792,-1.5787,-1.5712,-1.5777,-1.5773,-1.577,-1.5769,-1.5575,-1.5573,0,0,0,0,0,0,-1.5914,-1.5907,-1.5832,-1.583,-1.5891,-1.5861,-1.5857,-1.5838,-1.5815,-1.5814,-1.5844,-1.5848,-1.5798,-1.5792,-1.5785,-1.5697,-1.5772,-1.5768,-1.5766,-1.5578,-1.5575,-1.5572,0,0,0,0,0,0,-1.5916,-1.5907,-1.5834,-1.5869,-1.586,-1.5857,-1.5836,-1.5836,-1.5822,-1.5812,-1.5811,-1.583,-1.5799,-1.5791,-1.5734,-1.5696,-1.5766,-1.5763,-1.5581,-1.5577,-1.5573,-1.5522,0,0,0,0,0,0,-1.5919,-1.5908,-1.5883,-1.5868,-1.5858,-1.5786,-1.5833,-1.5834,-1.5816,-1.582,-1.5798,-1.5797,-1.58,-1.574,-1.573,-1.5691,-1.5759,-1.5584,-1.5579,-1.5575,-1.5527,-1.5517,-1.5508,0,0,0,0,0,-1.5923,-1.5869,-1.5882,-1.5872,-1.5827,-1.5784,-1.5778,-1.5786,-1.5813,-1.5786,-1.5779,-1.5798,-1.5702,-1.5734,-1.5723,-1.5682,-1.5587,-1.5581,-1.5575,-1.5531,-1.5519,-1.5508,0,0,0,0,0,0,-1.5877,-1.5867,-1.5881,-1.5821,-1.5804,-1.5791,-1.5757,-1.5773,-1.5745,-1.575,-1.5758,-1.5752,-1.5692,-1.5682,-1.5717,-1.561,-1.5648,-1.564,-1.5619,-1.5607,-1.5598,-1.56,-1.5756,0,0,0,0,0,-1.586,-1.5829,-1.5821,-1.5769,-1.576,-1.576,-1.5741,-1.5749,-1.5729,-1.5721,-1.571,-1.5688,-1.5653,-1.563,-1.5597,-1.5526,-1.552,-1.5492,-1.5483,-1.5475,-1.5467,-1.5425,-1.5412,-1.5553,-1.5553,-1.5553,0,0,-1.5825,-1.5816,-1.5795,-1.576,-1.5747,-1.5711,-1.5753,-1.5714,-1.5686,-1.5714,-1.566,-1.5651,-1.5627,-1.5562,-1.5533,-1.5552,-1.5427,-1.5468,-1.5462,-1.5458,-1.5418,-1.5405,-1.5393,-1.5549,-1.5549,-1.555,0,0,-1.5741,-1.5733,-1.5687,-1.5674,-1.5654,-1.5654,-1.5643,-1.5628,-1.5623,-1.557,-1.5589,-1.5555,-1.5495,-1.5477,-1.5459,-1.5367,-1.5381,-1.5356,-1.5305,-1.5264,-1.5253,-1.5243,-1.5208,-1.5195,-1.5348,-1.5348,-1.5348,0,-1.5699,-1.5649,-1.5661,-1.562,-1.5603,-1.5629,-1.5581,-1.5566,-1.5536,-1.5521,-1.5544,-1.5468,-1.5453,-1.5383,-1.536,-1.5346,-1.5331,-1.5357,-1.5255,-1.5245,-1.5236,-1.5201,-1.5188,-1.5345,-1.5345,-1.5345,-1.5346,0,-1.5596,-1.556,-1.5525,-1.5498,-1.5476,-1.5432,-1.5435,-1.5411,-1.542,-1.5416,-1.5359,-1.5343,-1.5306,-1.529,-1.5298,-1.522,-1.5232,-1.5254,-1.5292,-1.5219,-1.5187,-1.5174,-1.534,-1.5341,-1.5342,-1.5343,0,0,-1.5482,-1.5462,-1.5448,-1.5435,-1.5415,-1.5386,-1.5341,-1.5308,-1.5286,-1.5264,-1.5224,-1.5172,-1.5192,-1.5172,-1.5178,-1.5142,-1.5066,-1.5168,-1.5168,-1.5148,-1.4975,-1.4957,-1.4942,-1.5077,-1.5075,-1.5073,-1.4977,0,-1.5396,-1.5322,-1.5331,-1.5258,-1.5223,-1.5247,-1.5207,-1.5189,-1.5184,-1.5151,-1.5145,-1.5107,-1.5138,-1.5126,-1.5092,-1.5083,-1.5031,-1.509,-1.5036,-1.5034,-1.504,-1.4926,-1.4907,-1.4817,-1.4964,-1.4962,-1.4961,0,-1.5286,-1.5262,-1.5186,-1.5169,-1.5155,-1.512,-1.5088,-1.5059,-1.5036,-1.5035,-1.5012,-1.5024,-1.4975,-1.5016,-1.4946,-1.4986,-1.4964,-1.4956,-1.4953,-1.4946,-1.4992,-1.4913,-1.4789,-1.4774,-1.4942,-1.4943,-1.4945,0,-1.5207,-1.5156,-1.5103,-1.5091,-1.5071,-1.5045,-1.5035,-1.5016,-1.4994,-1.4966,-1.4951,-1.4917,-1.4897,-1.4868,-1.4868,-1.4898,-1.4796,-1.4838,-1.4791,-1.479,-1.4766,-1.4768,-1.4634,-1.4757,-1.4757,-1.4757,-1.4757,0,-1.5109,-1.5061,-1.5067,-1.5035,-1.498,-1.499,-1.4935,-1.4927,-1.4909,-1.4873,-1.4891,-1.4855,-1.4859,-1.4822,-1.4821,-1.4762,-1.4754,-1.4748,-1.4748,-1.4746,-1.4746,-1.473,-1.4735,-1.4753,-1.4754,-1.4755,-1.4756,0,-1.5012,-1.5014,-1.4958,-1.4944,-1.4939,-1.4899,-1.4885,-1.4852,-1.485,-1.4803,-1.4792,-1.4786,-1.4744,-1.4742,-1.4692,-1.4691,-1.4618,-1.4626,-1.4626,-1.4627,-1.4579,-1.4582,-1.4428,-1.4407,-1.4546,-1.4544,-1.4543,0,-1.4948,-1.4912,-1.4894,-1.4872,-1.4861,-1.4825,-1.4804,-1.4811,-1.4787,-1.4758,-1.4728,-1.4688,-1.4656,-1.4586,-1.4575,-1.4536,-1.4541,-1.449,-1.4536,-1.4533,-1.4537,-1.4538,-1.4533,-1.4481,-1.4479,-1.4478,-1.4477,0,-1.4834,-1.4836,-1.4806,-1.4775,-1.475,-1.4725,-1.4703,-1.4683,-1.4687,-1.4658,-1.4617,-1.4592,-1.4542,-1.45,-1.4462,-1.4448,-1.4461,-1.4463,-1.4449,-1.4445,-1.4445,-1.4441,-1.46,-1.4466,-1.4467,-1.4468,-1.4468,-1.4469,-1.4749,-1.4717,-1.4699,-1.4664,-1.4648,-1.4626,-1.4594,-1.4587,-1.4553,-1.4515,-1.452,-1.4473,-1.4448,-1.4399,-1.4382,-1.4342,-1.4359,-1.434,-1.4335,-1.4329,-1.4323,-1.4454,-1.4335,-1.4336,-1.4336,-1.4336,-1.4337,0,-1.4633,-1.4623,-1.4591,-1.4559,-1.453,-1.4549,-1.4524,-1.4498,-1.4457,-1.4434,-1.4403,-1.4353,-1.4312,-1.4298,-1.4257,-1.4228,-1.4233,-1.4217,-1.4217,-1.4213,-1.4312,-1.4326,-1.4213,-1.4213,-1.4213,-1.4213,-1.4213,-1.4213,-1.457,-1.4516,-1.4516,-1.4452,-1.4442,-1.4397,-1.4381,-1.4359,-1.4341,-1.4286,-1.4253,-1.4245,-1.4224,-1.4182,-1.4144,-1.4141,-1.4123,-1.4104,-1.4103,-1.4194,-1.4207,-1.4218,-1.4232,-1.4101,-1.4101,-1.4007,-1.4006,-1.4006]}]]